Regional Weather Roundup
Issued by NWS Mt. Holly, NJ

Home | Current Version | Previous Version | Text Only | Print | Product List | Glossary On
Versions: 1 2 3 4 5 6 7 8 9 10 11 12 13 14 15 16 17 18 19 20 21 22 23 24 25 26 27 28 29 30 31 32 33 34 35 36 37 38 39 40 41 42 43 44 45 46 47 48 49 50
000
ASUS41 KPHI 310510
RWRPHI

REGIONAL WEATHER ROUNDUP
NATIONAL WEATHER SERVICE MOUNT HOLLY NJ
1200 AM EST SAT JAN 31 2015

NOTE:  "FAIR" INDICATES FEW OR NO CLOUDS BELOW 12,000 FEET WITH NO
SIGNIFICANT WEATHER AND/OR OBSTRUCTIONS TO VISIBILITY.

 * = STATION DOES NOT REPORT PRECIPITATION (E.G. RAIN, SNOW, ETC.)
        OR FOG.

NJZ015>026-310600-
SOUTHERN NEW JERSEY

CITY           SKY/WX    TMP DP  RH WIND       PRES   REMARKS
POMONA         CLEAR     21   5  50 NW26G35   30.07R WCI   4
RIO GRANDE*    CLEAR     25   7  46 NW21G30   30.11S WCI  10
MILLVILLE      CLEAR     22   5  48 NW21G32   30.12R WCI   6
WRIGHTSTOWN    CLEAR     19   4  51 NW18G29   30.06S WCI   4
MOUNT HOLLY    CLEAR     20   4  50 NW23G35   30.11R WCI   3
TRENTON        PTCLDY    18   4  54 N14G24    30.08R WCI   4

$$
NJZ001>014-310600-
NORTHERN NEW JERSEY

CITY           SKY/WX    TMP DP  RH WIND       PRES   REMARKS
SUSSEX         CLEAR     14   1  56 NW17G31   30.03F WCI  -3
ANDOVER*         N/A     14   1  56 N14G23    30.05F WCI  -1
MORRISTOWN     PTCLDY    19   1  45 NW14G21   30.05F WCI   6
NEWARK         PTCLDY    18   3  52 NW21G36   30.05S WCI   1
TETERBORO      PTCLDY    18   2  49 NW21G29   30.03S WCI   1
CALDWELL       CLEAR     16   2  54 NW14G26   30.03F WCI   2
SOMERVILLE     CLEAR     18   1  47 NW24G39   30.05F WCI   0
ALLAIRE*       CLEAR     18   1  49 NW23G32   30.03S WCI   0
TOMS RIVER*    CLEAR     19   5  53 NW20G31   30.06S WCI   4

$$
PAZ043-044-047-054-055-060>062-066>071-310600-
EASTERN PENNSYLVANIA

CITY           SKY/WX    TMP DP  RH WIND       PRES   REMARKS
PHILADELPHIA   CLEAR     20   0  41 NW30G41   30.16R WCI   1
NORTH PHILA    CLEAR     20   1  43 NW23G36   30.13R WCI   3
BLUE BELL      CLEAR     19   3  49 NW9G18    30.12R WCI   9
DOYLESTOWN     PTCLDY    14   2  58 NW13G23   30.10R WCI   0
QUAKERTOWN*    CLEAR     14   0  52 NW14G28   30.13R WCI  -1
POTTSTOWN      CLEAR     15   1  53 NW10G18   30.16R WCI   2
LANCASTER      CLEAR     15   1  53 NW18G28   30.20R WCI  -2
COATESVILLE    CLEAR     18   5  57 NW21G37   30.13S WCI   1
READING        CLEAR     15   1  53 NW23G31   30.18R WCI  -3
ALLENTOWN      CLOUDY    16   1  51 NW16G24   30.14R WCI   1
MOUNT POCONO   MIX PCPN   8  -1  66 NW26G40   29.94F WCI -14
HAZLETON       MOCLDY    10   0  61 MISG      30.09S
WILKES BARRE   CLOUDY    13   1  59 NW23      30.13S WCI  -6

$$
DEZALL-MDZ008-012-015-019-020-310600-
DELAWARE AND EASTERN MARYLAND

CITY           SKY/WX    TMP DP  RH WIND       PRES   REMARKS
WILMINGTON     CLEAR     20   3  48 NW22G35   30.18R WCI   3
DOVER          CLEAR     22   6  51 NW23G33   30.15R WCI   6
GEORGETOWN     CLEAR     24   6  46 NW13G25   30.15S WCI  12
EASTON         CLEAR     25   9  50 NW21G37   30.24R WCI  10
PATUXENT       FAIR      24   7  48 NW22G38   30.22R WCI   9
OCEAN CITY     FAIR      24   9  52 NW17G26   30.14R WCI  11
WALLOPS ISLAND CLEAR     24  10  55 NW21G30   30.17R WCI   9
CAMBRIDGE      CLEAR     27   9  46 NW21G33   30.20R WCI  13
SALISBURY      CLEAR     26   7  44 NW18G35   30.17R WCI  13

$$
PAZ001-021-NYZ056-072-MDZ011-DCZ001-310600-
OTHER NEARBY LOCATIONS

CITY           SKY/WX    TMP DP  RH WIND       PRES   REMARKS
HARRISBURG     PTCLDY    15   1  53 NW22      30.23S WCI  -3
STATE COLLEGE  PTCLDY     9  -1  64 W12G18    30.25S WCI  -6
WILLIAMSPORT   MOCLDY    11  -2  56 W13       30.25S WCI  -4
BINGHAMTON     LGT SNOW   8   2  76 NW18G29   30.06S WCI -11
NEW YORK CITY  CLEAR     19   3  49 NW17G29   30.03R WCI   4
BALTIMORE      CLEAR     20   1  43 NW18G30   30.23R WCI   5
WASHINGTON DC  CLEAR     23   3  42 NW15G25   30.28R WCI  10

$$



USA.gov is the U.S. government's official web portal to all federal, state and local government web resources and services.